Temp
9 8 7 7 7 8 8 8 8 8 8 8 8 8 8 8 8 8 8 9 9 13 16 17 18 19 20 21 24 24 24 26 27 26 28 29 27 26 22 21 20 29 29 30 31 29 27 29 32 31 30 30 29 28
9 8 8 8 8 8 8 8 8 9 9 9 8 8 8 8 8 8 8 8 8 8 13 13 14 15 17 18 20 22 23 23 25 26 28 29 23 20 15 15 23 21 13 18 28 27 18 22 24 29 29 29 28 27
8 8 8 7 7 7 8 8 8 8 9 9 9 8 8 8 8 8 8 8 8 8 13 16 17 18 17 17 18 20 21 23 22 21 23 25 23 16 16 18 27 24 21 27 29 26 19 24 27 28 28 27 27 27
7 7 7 7 7 8 8 8 8 8 8 7 8 8 8 8 8 8 7 7 7 8 13 20 19 18 18 18 18 18 19 20 21 21 23 25 26 26 26 27 27 27 17 22 28 29 29 29 26 26 26 26 26 26
7 7 7 7 8 8 8 8 8 8 8 8 8 8 8 7 8 7 7 8 7 8 10 14 15 17 18 18 18 18 18 19 20 21 23 24 26 26 26 27 26 28 28 27 28 27 26 26 26 25 25 25 25 25
7 7 7 7 7 8 8 8 8 8 8 8 8 8 8 8 8 7 7 9 8 7 7 15 18 19 19 18 18 18 18 19 19 21 22 23 24 24 24 26 27 27 27 27 27 26 25 25 25 25 25 25 25 25
8 8 7 7 7 8 8 8 8 8 8 7 8 8 8 8 7 8 8 8 8 7 8 13 19 19 18 19 18 19 19 19 20 21 21 22 24 23 23 23 25 25 26 25 25 25 25 25 25 26 25 25 24 24
8 8 7 7 8 8 8 8 8 7 7 8 8 8 8 7 7 7 8 8 8 8 9 14 20 21 19 20 20 20 20 20 20 20 22 23 23 24 23 24 24 24 24 24 24 25 25 25 25 25 25 24 24 24
8 8 8 7 7 8 8 8 7 7 7 7 7 7 7 7 7 7 7 7 7 8 8 14 19 19 20 20 21 20 20 21 21 22 22 23 24 23 24 23 23 24 24 24 24 24 24 24 24 24 24 24 24 24
8 8 8 7 7 7 6 7 6 6 7 7 7 7 7 7 7 7 7 7 7 7 7 10 17 20 21 22 22 21 21 22 23 23 22 23 24 24 24 24 23 23 22 22 23 23 23 23 24 24 24 24 24 24
8 8 7 7 6 6 5 6 6 6 6 6 6 7 7 7 7 7 7 7 7 8 8 10 14 18 19 21 20 22 21 23 22 24 23 24 24 25 24 24 22 21 20 20 20 21 21 23 24 24 24 24 24 24
7 7 7 7 6 6 6 6 6 6 6 6 7 7 6 7 7 8 9 8 8 11 14 15 17 17 18 19 20 20 22 22 22 25 24 24 26 23 23 22 21 20 20 20 20 21 21 21 22 23 24 24 23 22
6 6 6 6 6 6 6 6 6 6 6 6 6 7 7 7 8 9 10 10 11 14 16 16 18 18 17 17 19 22 21 22 24 24 23 25 22 21 21 21 21 20 20 20 20 21 21 21 22 22 23 23 22 21
5 5 5 5 5 5 6 6 6 6 6 6 7 7 8 8 9 11 13 16 15 16 16 16 16 18 18 19 21 20 22 24 22 22 23 25 21 21 20 20 20 21 21 20 20 21 21 21 22 22 22 22 21 20
5 5 5 5 5 5 5 5 6 6 6 6 7 8 9 12 14 14 14 15 13 14 13 14 15 14 19 19 21 21 21 21 22 23 25 22 21 20 20 19 20 20 20 20 20 20 20 21 22 22 21 22 20 19
4 4 5 5 5 4 5 5 5 5 6 6 6 8 10 12 14 14 14 14 13 11 12 13 13 13 16 20 21 21 22 22 23 25 22 19 18 18 18 18 18 19 19 19 20 19 20 20 21 21 21 21 20 19
3 3 4 4 4 4 4 4 5 5 5 6 7 9 12 13 14 14 13 12 9 9 10 10 11 13 14 16 20 22 22 24 23 22 21 18 17 17 17 17 17 17 18 18 18 18 19 19 20 20 20 20 20 19
3 3 3 3 3 3 4 4 4 4 5 6 7 10 12 12 13 11 10 8 9 8 8 10 8 11 13 15 19 20 22 22 21 21 19 17 16 16 17 17 17 17 17 17 17 18 18 19 19 20 19 19 19 19
3 3 2 3 3 3 3 4 4 5 6 6 7 9 12 12 11 11 9 8 8 8 9 7 9 11 13 17 15 14 14 21 20 19 17 16 16 16 16 17 17 17 17 17 17 18 19 19 19 19 21 20 20 20
2 2 2 3 3 3 3 4 4 4 6 7 7 9 10 12 12 10 9 8 7 7 8 8 10 13 15 13 12 13 12 13 19 18 18 17 17 16 17 18 19 18 18 18 18 17 18 18 18 18 18 19 19 20
1 2 2 2 2 3 3 3 4 5 5 6 9 10 11 11 10 10 10 9 7 9 9 9 10 12 12 11 13 12 12 13 19 19 19 18 18 19 18 18 18 19 19 19 19 17 17 18 18 16 15 15 15 17
2 2 2 2 3 2 3 3 3 4 5 6 7 9 10 10 10 11 11 10 9 10 11 11 11 12 10 11 13 13 12 12 15 16 17 18 18 18 18 19 19 19 19 19 18 18 18 18 17 14 13 13 13 14
2 2 3 3 3 2 4 5 5 4 5 6 7 9 9 10 11 11 11 12 12 12 12 12 12 12 11 11 10 11 12 12 15 16 17 18 18 18 18 18 18 18 18 18 18 17 17 16 15 14 13 13 13 14
2 3 4 5 5 5 6 6 6 6 6 9 10 10 12 11 11 12 12 13 13 14 13 13 13 12 12 11 11 11 12 13 14 15 17 17 18 18 18 18 18 18 18 17 17 17 17 15 14 13 13 12 13 13
2 3 4 3 6 7 7 8 9 9 8 10 10 11 12 12 12 12 12 14 14 14 14 14 13 13 13 13 12 11 12 14 14 15 17 17 17 17 17 17 18 18 18 18 18 17 17 16 14 15 13 13 13 13
3 5 4 8 8 8 10 11 11 12 12 12 12 12 13 13 12 12 15 15 15 14 14 14 14 14 13 14 13 13 13 14 15 16 16 17 17 17 17 17 18 18 18 18 17 17 17 17 15 13 13 13 13 12
3 8 8 8 10 10 11 11 11 12 11 11 13 13 12 11 12 14 14 13 14 14 14 13 13 14 14 14 14 15 15 14 14 15 15 16 16 17 17 17 17 17 17 17 17 17 17 17 16 14 13 13 13 12
6 8 10 10 9 9 10 11 11 11 12 12 13 12 12 13 14 13 12 12 12 11 11 12 12 13 14 14 14 14 14 14 14 14 15 15 15 16 16 16 16 16 15 15 15 16 17 17 16 14 13 13 13 13
6 7 8 9 9 10 10 10 11 11 12 12 13 13 13 13 12 12 12 11 10 10 11 11 11 12 12 12 13 13 14 14 14 14 14 15 16 16 16 16 16 16 16 15 14 15 15 15 15 15 14 13 13 13
6 6 7 7 7 8 9 10 10 11 11 11 12 12 12 12 12 11 11 11 11 11 11 11 12 12 13 13 14 14 14 14 14 15 15 15 16 17 18 17 17 17 17 16 16 15 15 15 15 15 15 14 12 13
8 7 8 8 8 8 8 9 9 9 9 10 10 11 11 11 11 11 12 11 11 11 11 12 12 12 12 12 13 13 13 14 14 14 14 15 16 16 16 17 17 17 16 16 16 16 16 15 15 16 15 14 14 13
7 7 6 5 6 5 4 4 5 7 7 8 9 9 9 9 10 11 11 11 11 11 11 11 11 12 12 12 12 13 13 13 14 14 13 13 14 15 15 15 16 16 16 16 17 16 16 16 16 16 15 14 13 13
2 2 2 2 2 4 5 3 4 4 4 6 6 7 8 8 7 8 9 10 11 11 11 11 12 12 12 12 12 13 12 12 12 12 12 12 13 13 14 14 15 16 16 16 16 16 16 17 16 16 16 15 13 14
Height
1500 1499 1498 1497 1496 1495 1493 1493 1492 1491 1491 1491 1491 1492 1492 1493 1495 1496 1496 1497 1497 1492 1480 1480 1478 1476 1473 1470 1462 1456 1458 1453 1448 1445 1437 1422 1432 1432 1441 1456 1456 1431 1430 1425 1422 1431 1452 1423 1425 1429 1429 1430 1435 1439
1497 1495 1495 1494 1493 1492 1491 1490 1490 1489 1489 1489 1489 1489 1490 1491 1492 1493 1495 1495 1494 1493 1481 1476 1475 1474 1474 1473 1471 1465 1461 1459 1449 1445 1433 1423 1441 1454 1473 1473 1436 1457 1467 1475 1426 1433 1448 1447 1438 1415 1431 1434 1436 1439
1494 1493 1492 1491 1490 1489 1488 1487 1486 1486 1486 1486 1486 1486 1487 1489 1490 1492 1494 1493 1492 1489 1476 1470 1467 1466 1467 1468 1471 1470 1464 1461 1460 1458 1451 1439 1437 1461 1474 1470 1431 1432 1443 1434 1424 1431 1441 1441 1437 1437 1437 1437 1437 1439
1491 1489 1488 1487 1487 1486 1485 1484 1483 1482 1482 1482 1482 1483 1484 1486 1488 1490 1491 1493 1492 1491 1483 1460 1461 1462 1462 1462 1464 1466 1465 1464 1462 1459 1454 1446 1438 1427 1432 1426 1425 1423 1448 1439 1429 1426 1430 1424 1434 1436 1439 1438 1438 1439
1487 1485 1484 1484 1483 1482 1481 1480 1479 1479 1479 1479 1479 1480 1481 1483 1486 1488 1489 1489 1490 1493 1485 1469 1461 1456 1457 1458 1460 1462 1463 1464 1463 1459 1452 1447 1443 1440 1436 1432 1431 1426 1425 1430 1428 1428 1436 1434 1436 1440 1439 1439 1439 1440
1483 1482 1481 1480 1479 1478 1478 1477 1476 1476 1476 1476 1476 1477 1478 1481 1484 1486 1487 1485 1486 1487 1488 1472 1454 1452 1452 1454 1455 1457 1459 1460 1460 1457 1451 1446 1444 1447 1440 1430 1425 1425 1425 1425 1428 1432 1434 1434 1435 1436 1437 1438 1438 1439
1479 1478 1477 1476 1475 1474 1473 1473 1473 1473 1473 1474 1474 1475 1476 1478 1480 1484 1485 1484 1484 1485 1486 1474 1450 1446 1449 1450 1451 1452 1454 1454 1455 1453 1451 1448 1442 1443 1441 1438 1432 1432 1431 1432 1433 1435 1435 1436 1434 1433 1435 1434 1436 1437
1473 1474 1473 1472 1471 1470 1470 1469 1469 1469 1470 1471 1472 1473 1474 1477 1479 1481 1481 1482 1483 1484 1484 1473 1448 1442 1445 1444 1444 1447 1448 1450 1449 1448 1444 1442 1441 1439 1438 1434 1434 1433 1434 1433 1433 1432 1432 1431 1431 1432 1432 1433 1434 1434
1468 1469 1469 1468 1467 1466 1465 1466 1466 1466 1467 1469 1471 1472 1474 1476 1477 1477 1479 1480 1482 1486 1479 1466 1444 1442 1441 1440 1438 1444 1443 1443 1443 1439 1439 1437 1430 1428 1427 1431 1430 1430 1430 1430 1429 1428 1429 1429 1428 1428 1428 1429 1430 1430
1462 1463 1464 1464 1463 1462 1461 1462 1463 1465 1467 1467 1470 1472 1472 1472 1474 1476 1476 1477 1477 1476 1476 1468 1450 1442 1438 1433 1434 1438 1438 1434 1426 1428 1430 1427 1421 1420 1421 1424 1425 1427 1427 1428 1427 1427 1427 1426 1425 1424 1424 1425 1426 1427
1457 1458 1459 1460 1460 1460 1460 1460 1462 1464 1466 1467 1468 1469 1470 1471 1472 1473 1472 1472 1471 1469 1464 1457 1453 1445 1439 1436 1434 1429 1427 1422 1421 1415 1418 1413 1413 1410 1413 1416 1420 1423 1424 1424 1423 1422 1422 1421 1420 1420 1421 1422 1423 1424
1451 1453 1455 1456 1456 1457 1458 1459 1460 1462 1464 1466 1467 1467 1468 1470 1470 1469 1465 1465 1463 1456 1444 1440 1437 1440 1439 1438 1436 1428 1421 1416 1416 1401 1406 1408 1399 1404 1409 1414 1418 1420 1420 1419 1417 1415 1415 1417 1418 1419 1419 1420 1421 1423
1446 1448 1450 1451 1452 1452 1454 1456 1458 1460 1463 1465 1465 1465 1465 1464 1463 1459 1453 1451 1447 1439 1433 1433 1431 1433 1437 1438 1434 1423 1418 1413 1405 1403 1404 1395 1400 1406 1409 1413 1416 1417 1417 1415 1413 1411 1411 1412 1414 1416 1417 1419 1421 1423
1441 1443 1445 1446 1447 1449 1450 1451 1454 1457 1460 1461 1461 1460 1457 1452 1448 1440 1437 1431 1432 1428 1429 1430 1430 1428 1429 1429 1423 1419 1411 1403 1403 1405 1399 1389 1399 1404 1407 1412 1414 1414 1414 1414 1412 1411 1409 1410 1411 1414 1415 1417 1420 1422
1436 1438 1440 1442 1444 1445 1445 1447 1449 1453 1456 1456 1454 1448 1442 1435 1430 1429 1429 1429 1430 1429 1430 1427 1427 1428 1418 1418 1412 1406 1402 1402 1398 1394 1384 1386 1396 1403 1406 1409 1412 1413 1413 1412 1411 1410 1409 1409 1410 1412 1414 1416 1418 1421
1432 1434 1435 1438 1440 1441 1443 1444 1446 1448 1449 1448 1444 1438 1434 1430 1426 1425 1426 1427 1428 1431 1431 1430 1425 1421 1414 1403 1396 1396 1394 1392 1386 1382 1387 1394 1399 1402 1405 1408 1410 1411 1411 1411 1411 1410 1410 1409 1409 1410 1412 1414 1416 1419
1428 1431 1431 1433 1436 1438 1440 1442 1443 1442 1441 1437 1432 1431 1426 1424 1421 1422 1423 1426 1429 1432 1433 1433 1427 1422 1417 1405 1393 1384 1386 1381 1383 1385 1390 1396 1400 1403 1405 1407 1408 1409 1410 1410 1410 1409 1409 1409 1409 1409 1410 1412 1414 1417
1426 1426 1428 1430 1432 1435 1438 1439 1438 1435 1430 1427 1426 1422 1422 1422 1421 1423 1424 1426 1428 1430 1432 1428 1428 1420 1412 1405 1388 1385 1381 1382 1384 1386 1393 1397 1400 1402 1405 1407 1408 1408 1408 1408 1408 1408 1408 1408 1407 1407 1408 1409 1412 1415
1422 1422 1425 1427 1430 1433 1435 1434 1433 1427 1423 1422 1420 1420 1417 1416 1418 1418 1421 1423 1425 1426 1427 1427 1422 1416 1407 1395 1394 1391 1388 1379 1383 1388 1393 1397 1400 1403 1405 1406 1407 1408 1407 1407 1407 1407 1406 1406 1406 1405 1405 1406 1409 1411
1419 1421 1423 1425 1428 1430 1429 1427 1425 1422 1418 1416 1416 1415 1413 1411 1412 1414 1416 1418 1420 1420 1421 1419 1411 1404 1400 1399 1394 1391 1380 1380 1383 1384 1391 1396 1399 1402 1404 1405 1405 1406 1406 1406 1404 1404 1404 1404 1404 1405 1405 1405 1407 1408
1417 1419 1421 1423 1427 1427 1424 1421 1419 1417 1414 1413 1409 1407 1405 1404 1405 1407 1408 1411 1412 1407 1406 1405 1404 1402 1401 1396 1393 1388 1389 1376 1378 1378 1385 1391 1396 1398 1401 1402 1404 1403 1403 1403 1403 1403 1403 1402 1402 1402 1401 1402 1403 1404
1414 1417 1421 1422 1423 1423 1420 1417 1415 1413 1412 1408 1407 1403 1400 1398 1398 1397 1398 1399 1397 1395 1395 1395 1394 1393 1393 1392 1388 1385 1387 1370 1379 1379 1385 1389 1393 1397 1398 1399 1400 1401 1401 1402 1403 1401 1401 1400 1400 1399 1397 1397 1398 1400
1413 1417 1419 1419 1420 1418 1413 1411 1410 1409 1407 1404 1403 1399 1396 1392 1390 1391 1387 1384 1384 1385 1386 1385 1385 1387 1387 1387 1386 1383 1385 1381 1381 1381 1385 1389 1391 1394 1397 1398 1398 1399 1399 1400 1400 1400 1399 1398 1397 1396 1395 1394 1396 1397
1412 1414 1414 1412 1411 1408 1405 1403 1402 1401 1399 1394 1390 1386 1381 1382 1383 1380 1377 1375 1373 1372 1373 1374 1377 1379 1381 1381 1382 1381 1382 1385 1385 1385 1387 1389 1390 1391 1393 1394 1394 1395 1395 1396 1396 1397 1396 1395 1395 1394 1394 1393 1393 1394
1412 1410 1409 1406 1401 1400 1396 1393 1390 1391 1388 1384 1383 1380 1374 1374 1373 1371 1368 1363 1361 1361 1363 1366 1368 1369 1371 1372 1376 1378 1380 1383 1384 1385 1384 1386 1387 1389 1389 1390 1389 1389 1390 1391 1392 1393 1393 1394 1392 1392 1393 1393 1392 1395
1404 1398 1397 1388 1387 1388 1383 1375 1373 1373 1372 1372 1372 1370 1369 1368 1369 1362 1353 1351 1352 1354 1354 1357 1360 1361 1363 1365 1368 1371 1373 1377 1378 1378 1380 1382 1383 1384 1384 1385 1384 1384 1385 1386 1387 1388 1389 1389 1390 1390 1390 1390 1392 1392
1396 1383 1380 1381 1376 1375 1374 1372 1370 1368 1367 1368 1365 1364 1368 1367 1357 1350 1349 1351 1351 1351 1352 1355 1356 1356 1357 1359 1362 1364 1366 1371 1374 1375 1377 1378 1379 1380 1380 1381 1381 1382 1382 1382 1383 1384 1384 1385 1386 1387 1388 1388 1390 1393
1382 1375 1372 1372 1373 1373 1370 1368 1365 1364 1363 1362 1360 1357 1357 1354 1349 1349 1352 1352 1352 1352 1353 1353 1354 1354 1354 1356 1358 1361 1364 1366 1368 1371 1372 1373 1374 1375 1376 1377 1378 1378 1380 1380 1381 1381 1381 1382 1382 1384 1384 1385 1387 1390
1375 1372 1372 1369 1367 1365 1365 1364 1362 1358 1357 1355 1353 1351 1351 1351 1351 1352 1352 1352 1352 1353 1353 1354 1355 1356 1357 1358 1359 1361 1361 1362 1364 1365 1367 1367 1368 1369 1370 1372 1373 1374 1375 1376 1376 1377 1377 1377 1379 1381 1382 1384 1386 1389
1369 1368 1367 1367 1366 1363 1360 1359 1355 1354 1352 1351 1350 1349 1348 1347 1348 1349 1349 1350 1350 1351 1352 1353 1353 1354 1354 1355 1355 1357 1358 1359 1359 1359 1362 1363 1363 1362 1362 1365 1368 1370 1371 1372 1373 1375 1376 1377 1378 1380 1382 1384 1384 1385
1361 1361 1360 1360 1359 1357 1356 1355 1353 1352 1350 1348 1346 1344 1343 1343 1342 1342 1343 1344 1345 1346 1347 1348 1349 1351 1352 1353 1353 1353 1355 1356 1357 1358 1359 1358 1360 1361 1362 1363 1365 1367 1368 1369 1370 1372 1374 1376 1377 1379 1380 1382 1384 1386
1357 1358 1361 1360 1357 1357 1357 1355 1352 1348 1345 1342 1339 1339 1339 1338 1334 1334 1335 1336 1337 1337 1339 1342 1343 1344 1346 1347 1349 1351 1352 1352 1354 1356 1358 1359 1360 1361 1363 1364 1365 1366 1366 1367 1367 1370 1372 1374 1375 1376 1378 1380 1383 1386
1357 1358 1359 1359 1357 1353 1350 1351 1348 1343 1340 1336 1334 1332 1330 1330 1327 1325 1325 1325 1326 1327 1329 1332 1334 1336 1339 1341 1342 1344 1346 1348 1351 1352 1353 1355 1356 1358 1359 1361 1362 1363 1364 1366 1366 1368 1369 1372 1373 1375 1377 1379 1382 1386
Wind_Speed
13 12 11 10 9 8 7 8 7 9 9 9 9 10 11 10 9 6 6 5 5 10 22 16 15 13 12 11 9 8 7 14 10 11 14 16 2 6 4 18 18 12 8 12 13 6 9 23 4 6 7 6 7 7
13 12 11 10 10 10 10 9 10 11 10 10 10 10 13 11 12 9 6 5 5 11 15 16 16 17 20 20 16 12 13 7 8 7 9 11 3 4 5 4 13 1 7 13 2 4 16 5 34 14 8 6 6 8
12 11 11 10 9 10 10 10 10 11 12 13 13 12 14 15 12 11 8 8 9 9 21 22 19 15 19 24 19 17 15 14 7 7 10 9 2 3 2 14 19 1 3 9 7 10 11 19 11 7 8 8 7 9
14 12 11 11 11 11 11 11 10 10 11 11 11 11 12 16 13 12 9 6 8 5 7 4 4 8 10 14 21 23 23 10 10 12 13 9 10 7 9 11 9 3 18 17 10 11 17 2 6 7 8 8 7 8
12 11 11 11 12 11 11 11 10 10 10 10 9 11 12 16 14 11 11 13 10 6 5 15 25 20 20 14 12 16 21 22 19 15 10 9 12 9 9 10 10 15 8 8 9 8 8 9 5 9 9 8 6 6
12 11 12 12 12 13 12 12 11 10 9 10 10 10 11 17 14 12 5 4 12 16 4 5 6 9 8 11 15 21 18 18 20 19 13 18 21 7 8 11 11 16 16 15 11 13 12 15 16 15 13 11 7 6
12 12 13 12 12 12 12 11 11 9 8 9 8 9 10 16 19 13 2 4 4 12 4 6 6 9 10 12 12 13 18 17 17 19 19 18 18 10 10 14 19 18 15 16 13 15 17 17 18 14 14 12 10 9
13 12 13 13 13 14 13 11 10 9 8 8 7 6 9 12 15 19 13 9 4 5 5 4 5 6 10 9 8 11 14 16 15 18 17 17 20 18 11 17 21 20 19 19 20 19 20 19 18 16 15 12 13 13
15 13 13 13 12 13 12 10 9 8 7 6 5 9 11 13 10 12 17 15 12 9 4 5 9 4 7 13 9 8 12 7 11 10 14 15 11 12 11 19 18 17 18 18 18 13 13 16 16 16 17 17 16 14
17 15 14 12 11 11 8 8 8 7 7 8 10 5 4 6 13 6 7 6 9 8 8 6 17 9 5 9 9 7 10 8 7 10 14 14 14 22 24 25 23 19 16 17 19 21 22 21 18 15 14 17 16 14
18 15 13 11 9 7 5 5 8 10 11 12 6 4 5 4 10 5 5 6 6 4 8 10 24 15 16 8 5 12 4 7 11 9 12 9 12 18 28 21 9 11 12 15 18 21 21 21 17 13 13 14 14 12
16 14 13 12 10 8 8 8 13 16 10 11 5 7 8 5 5 4 4 4 5 5 10 15 18 24 17 14 6 4 9 4 6 7 11 13 11 10 12 10 9 8 9 12 14 18 19 21 20 16 13 11 10 8
15 15 14 13 12 10 12 12 14 17 12 9 6 5 6 6 6 5 7 4 4 7 8 10 7 8 13 9 9 5 5 9 7 7 11 11 12 12 11 10 7 6 6 6 7 7 10 15 17 17 13 9 7 10
15 15 15 13 12 11 13 13 16 17 13 5 7 4 5 5 5 7 9 9 15 6 7 14 13 9 12 10 7 6 9 7 14 12 17 9 19 17 14 9 7 6 4 4 5 5 5 10 14 14 12 11 11 12
16 15 13 12 13 11 12 13 16 24 11 6 6 5 7 14 14 8 16 9 4 5 12 8 7 8 8 6 6 6 5 6 7 14 12 16 20 15 13 9 7 5 3 4 5 5 5 4 11 13 12 12 12 13
15 12 14 12 12 11 10 12 18 23 7 6 8 4 9 10 14 16 12 11 2 1 5 7 3 3 4 5 9 13 10 8 11 5 14 15 13 12 10 8 6 5 4 4 5 5 5 4 7 12 12 12 13 14
14 9 11 11 11 10 10 12 15 8 7 6 7 18 17 10 8 7 8 6 2 2 2 2 4 5 5 5 15 10 14 10 4 9 11 12 13 11 9 6 4 4 4 5 6 6 6 5 4 8 13 14 13 15
10 12 11 11 10 8 10 12 7 6 8 11 6 16 23 22 16 9 6 7 7 6 2 2 4 4 4 4 11 7 6 5 8 12 12 12 11 10 8 6 3 1 4 5 6 7 7 7 5 6 8 12 15 16
11 13 12 13 11 9 7 7 8 5 11 6 15 14 17 17 17 11 12 12 9 7 4 4 5 4 4 7 7 16 22 15 16 15 15 13 12 10 8 5 3 1 3 5 5 6 7 7 7 5 6 10 15 18
16 14 12 11 11 7 4 5 6 5 4 5 12 16 22 22 17 15 15 14 13 7 6 5 4 11 13 16 23 26 29 31 20 18 17 14 12 10 8 5 3 2 2 4 5 5 4 5 6 5 7 9 13 17
13 11 12 11 7 8 4 4 6 5 4 7 11 17 16 15 21 20 19 20 17 8 5 19 24 22 21 16 26 21 38 34 11 17 19 16 12 9 8 6 4 4 4 3 5 5 4 6 5 7 6 9 13 13
11 12 8 10 6 5 6 8 6 3 4 4 6 12 11 14 18 20 22 21 9 21 23 24 26 24 26 25 21 28 32 32 3 10 13 13 11 9 9 7 5 7 5 4 5 6 6 5 5 7 9 9 12 16
11 12 5 7 7 6 6 10 8 6 4 4 5 5 5 11 18 18 11 18 29 29 27 26 25 25 24 25 17 22 24 21 4 3 7 9 9 7 8 9 10 10 11 10 8 8 8 7 6 6 5 8 13 19
11 7 6 7 11 5 5 8 7 6 8 9 5 9 10 9 13 10 9 21 27 22 24 28 27 24 22 23 28 16 17 20 15 12 15 12 12 11 11 12 12 14 14 12 12 11 9 8 7 6 6 7 18 17
5 6 5 5 7 6 5 5 12 7 6 10 15 10 4 4 6 10 11 18 21 21 23 23 21 23 26 25 27 27 24 23 22 22 16 15 13 13 14 14 15 14 13 14 13 12 12 9 8 11 9 9 16 21
5 8 9 10 8 7 8 7 8 14 12 14 7 7 10 7 13 9 10 17 20 22 17 18 20 21 23 25 26 27 29 25 22 20 19 17 15 15 15 15 14 13 12 13 14 13 14 12 9 9 14 13 16 18
5 7 11 11 11 10 6 9 11 6 7 6 8 10 4 6 8 6 4 7 10 9 10 13 14 16 18 21 23 19 21 28 27 23 19 20 19 16 14 14 13 12 10 8 10 11 13 12 11 11 13 17 13 21
11 6 11 13 14 13 13 10 10 10 8 13 10 9 6 5 3 5 4 5 4 5 8 10 10 12 10 11 13 16 18 17 16 17 18 17 16 15 14 13 13 12 10 10 10 11 11 10 9 9 14 17 15 16
9 8 9 11 14 10 13 13 13 15 13 13 10 13 14 15 12 10 7 5 6 7 8 9 9 10 9 10 11 12 13 15 17 18 19 17 17 17 16 14 13 9 9 8 12 14 10 9 10 10 12 16 17 22
14 16 11 10 11 8 15 14 12 14 16 19 19 19 21 21 16 13 12 9 11 12 11 11 10 11 12 12 13 12 11 12 13 14 18 18 16 13 13 16 12 11 10 8 10 12 10 9 10 9 12 13 15 21
8 8 13 16 14 18 19 18 19 20 21 22 21 22 22 20 20 20 19 18 17 17 16 16 16 15 14 13 13 13 14 14 12 12 12 13 10 6 4 7 7 8 7 8 12 13 10 9 10 12 13 14 16 18
7 9 6 4 7 14 14 12 15 18 21 22 25 25 24 24 27 26 24 24 25 26 25 24 24 23 21 19 18 18 17 15 15 13 12 12 13 10 8 10 9 8 6 9 13 12 13 11 10 11 12 14 18 19
4 5 4 4 3 5 7 8 4 5 8 9 12 19 21 18 17 26 26 27 30 31 29 28 26 24 23 22 21 20 20 20 19 18 14 15 14 14 14 12 9 6 8 8 10 13 12 14 9 10 12 13 18 20
Wind_Direction
298 295 297 293 301 303 291 283 280 273 275 268 260 247 243 241 235 259 264 279 268 274 273 279 276 275 267 249 274 26 276 223 264 238 252 261 209 310 75 264 323 252 237 222 247 204 242 359 193 267 85 88 31 5
300 296 295 290 293 291 288 287 273 270 272 268 257 251 235 237 237 245 269 280 268 255 262 289 268 258 251 258 289 291 296 320 339 294 251 283 17 64 349 281 315 323 125 275 54 42 351 35 289 45 24 27 16 353
306 298 294 289 293 293 292 291 282 270 264 264 262 246 233 231 234 238 248 266 297 290 295 256 257 272 247 242 236 259 259 256 267 300 310 301 24 139 184 232 219 62 42 293 289 147 150 237 289 351 355 356 345 332
305 299 293 286 287 290 294 291 288 277 275 276 250 240 238 224 223 237 244 264 264 288 282 297 229 256 258 234 230 233 246 270 272 285 284 287 293 334 292 332 307 64 144 231 294 288 286 229 70 24 6 353 349 330
313 298 290 287 288 289 294 290 283 277 269 257 251 242 241 215 226 234 241 255 248 242 300 302 299 271 250 229 224 231 234 242 256 267 257 260 278 276 273 281 282 286 288 278 286 12 334 325 5 338 334 343 349 349
305 295 294 289 285 287 292 289 281 273 271 259 247 242 235 209 215 213 270 284 234 232 282 283 320 274 231 218 234 227 229 231 238 246 257 267 273 290 276 276 273 284 287 288 276 297 300 296 298 297 296 281 297 302
279 297 295 289 286 286 287 286 278 263 259 253 245 238 224 204 204 191 209 136 41 200 237 276 263 183 221 229 230 225 216 225 227 234 244 260 260 220 260 265 277 283 280 282 281 277 277 279 281 281 287 266 253 254
260 287 294 291 288 285 283 278 267 253 248 244 238 224 202 198 214 219 223 216 339 208 253 268 264 228 190 205 201 205 204 209 222 240 237 235 240 232 254 262 264 265 268 269 265 263 266 267 266 269 273 249 245 245
250 266 284 291 290 287 283 268 252 232 220 222 205 182 173 193 207 228 232 246 249 222 271 264 269 28 172 237 198 183 208 211 231 220 236 243 235 235 234 246 259 263 261 261 253 251 263 272 272 264 254 243 243 248
245 256 269 278 288 301 283 248 227 210 195 183 167 163 200 212 214 218 206 208 207 207 226 254 271 272 230 224 188 207 196 231 211 217 235 225 244 246 237 245 251 260 272 271 270 262 259 258 261 264 252 238 243 250
242 251 256 265 270 286 283 228 199 178 175 176 182 201 211 204 179 192 210 200 189 225 217 230 237 258 255 266 299 214 212 225 232 226 206 225 231 237 234 239 251 252 258 262 258 258 255 253 254 247 240 241 250 252
232 237 247 253 250 258 246 221 196 192 187 186 186 178 161 190 210 227 198 191 209 230 208 218 221 213 241 248 272 243 232 235 233 255 206 231 248 124 156 185 212 238 265 276 269 262 249 237 237 245 244 242 240 221
225 231 241 243 243 252 238 222 208 205 194 195 206 186 180 186 222 221 194 198 216 207 221 210 192 192 211 211 238 266 237 241 265 226 230 245 120 158 166 174 209 237 270 295 295 274 239 230 227 228 232 223 200 180
220 230 238 237 240 248 234 224 210 199 195 210 196 221 204 191 230 207 220 201 225 221 214 208 229 203 202 189 233 217 240 249 239 234 244 201 163 167 164 189 213 236 271 297 327 320 270 231 219 217 217 201 190 179
217 226 231 232 237 237 226 218 201 193 194 221 200 225 214 231 238 235 231 253 262 283 294 283 204 263 196 218 212 234 232 200 225 236 251 131 154 169 173 186 214 234 271 303 322 334 341 256 220 215 211 202 194 184
211 223 226 225 229 221 216 206 192 193 209 219 228 240 233 243 242 241 229 245 141 272 308 285 271 285 243 236 209 213 223 210 226 242 118 135 149 158 172 180 200 232 265 291 305 317 327 331 234 222 213 204 198 192
201 212 231 215 215 214 209 197 193 205 220 219 222 224 253 277 262 264 233 196 153 138 192 281 245 211 299 258 233 226 234 243 95 102 129 144 157 160 160 172 200 241 268 280 288 298 301 312 290 226 218 212 203 195
198 227 219 199 188 207 203 198 209 229 238 234 230 228 228 244 254 249 204 192 178 164 217 246 316 244 227 236 237 265 224 148 141 143 153 154 151 147 150 153 155 261 290 287 284 286 285 284 277 243 219 208 198 193
193 222 198 185 188 188 191 215 213 250 230 247 227 238 248 245 254 241 218 192 190 171 160 265 230 223 250 284 329 307 319 184 158 154 148 146 146 150 153 151 153 344 318 300 288 278 274 274 261 262 226 207 204 199
194 203 191 185 190 194 221 235 207 246 244 230 226 230 235 242 241 233 218 197 191 178 186 211 248 243 250 279 287 287 300 278 163 152 158 158 159 155 158 163 180 214 261 300 282 305 273 262 256 251 237 222 211 206
180 186 187 182 198 219 246 239 234 237 233 224 240 240 241 238 232 225 222 210 205 221 221 228 243 252 249 271 267 246 276 311 194 174 168 166 177 177 180 193 209 241 265 297 303 311 292 266 275 255 254 235 225 216
184 178 163 186 209 215 248 235 234 264 249 249 267 239 245 234 232 235 238 215 229 235 236 242 245 249 249 255 254 242 257 301 0 147 146 153 167 194 211 225 230 262 270 281 295 302 283 290 266 262 275 259 223 202
161 168 188 191 200 220 254 203 215 202 230 212 222 232 235 246 243 242 234 232 239 243 244 244 243 245 249 247 246 249 249 271 281 207 182 197 212 225 241 252 258 257 259 266 269 284 293 276 270 260 260 235 205 204
165 185 207 207 206 233 216 207 209 206 215 230 221 236 246 222 229 228 241 241 249 247 239 234 235 238 233 232 229 230 231 244 234 236 227 223 236 246 258 265 262 256 251 258 261 261 266 276 245 243 243 219 200 191
168 221 207 237 217 219 224 217 215 204 232 219 233 242 268 220 240 245 254 259 253 246 237 229 232 230 230 224 222 224 221 225 219 235 232 233 248 260 264 263 263 255 251 253 256 255 251 250 253 229 211 211 202 204
208 215 201 202 202 202 207 232 222 229 236 244 222 227 246 246 245 250 256 249 245 245 235 230 229 226 225 226 216 219 216 222 230 232 235 239 243 257 264 267 258 245 246 250 250 250 243 241 247 242 212 196 202 196
233 231 205 227 245 214 241 249 260 258 235 238 240 230 219 243 251 254 262 272 263 258 229 224 227 231 227 219 226 221 211 212 228 231 234 238 248 250 254 251 249 249 260 255 255 252 239 239 235 228 213 195 200 192
235 260 241 222 219 242 250 249 251 240 239 244 245 222 219 222 271 21 335 300 260 221 207 206 202 226 211 189 198 206 214 216 219 227 232 234 233 238 240 242 237 248 254 257 254 232 228 231 234 218 197 199 189 187
231 237 251 259 246 232 239 245 239 244 246 250 240 233 246 246 264 272 288 248 208 185 181 180 181 184 188 192 197 201 204 206 210 213 219 226 226 226 226 227 225 234 241 253 229 213 220 232 199 204 194 192 190 191
245 237 223 233 227 238 245 242 258 256 257 254 259 262 262 260 257 257 253 232 216 211 207 203 201 202 207 205 203 203 203 207 215 219 209 218 229 231 229 203 210 226 236 244 221 218 229 220 215 191 181 187 187 191
233 235 238 237 249 251 258 275 271 271 268 264 261 262 262 264 261 250 243 236 232 230 230 228 226 222 223 224 226 222 220 220 219 224 232 233 246 233 203 196 214 228 236 232 217 206 210 199 198 196 197 196 194 190
254 249 238 254 261 261 278 284 277 273 262 256 255 255 257 260 261 254 244 241 240 237 237 237 237 236 235 236 235 236 236 232 223 223 226 233 231 227 223 220 228 234 228 226 204 203 200 206 204 190 192 194 189 180
231 230 227 271 261 249 245 215 248 275 262 260 265 260 262 268 272 264 251 244 242 240 239 239 239 238 236 235 234 233 231 230 227 227 221 208 204 204 201 210 236 243 203 227 206 205 205 200 205 198 185 187 186 184